| time (UTC) | temp C | wind direction | speed KPH | gust KPH | rain 1hr cm | rain 24hr cm | rain mn cm | humidity % | barometer mb |
| 20260504193016 | 24 | 137 | 14.5 | 30.6 | 0.00 | 0.00 | 0.00 | 33 | 1008.5 |
| 20260504190016 | 23 | 139 | 12.9 | 29.0 | 0.00 | 0.00 | 0.00 | 34 | 1008.7 |
| 20260504183016 | 23 | 142 | 11.3 | 22.5 | 0.00 | 0.00 | 0.00 | 35 | 1008.9 |
| 20260504180016 | 23 | 148 | 9.7 | 25.7 | 0.00 | 0.00 | 0.00 | 35 | 1009.0 |
| 20260504173016 | 22 | 155 | 12.9 | 25.7 | 0.00 | 0.00 | 0.00 | 35 | 1008.7 |
| 20260504050015 | 29 | 163 | 8.0 | 17.7 | 0.00 | 0.00 | 0.00 | 22 | 1002.9 |
| 20260504043015 | 30 | 169 | 8.0 | 24.1 | 0.00 | 0.00 | 0.00 | 21 | 1002.7 |
| 20260504040036 | 31 | 166 | 9.7 | 32.2 | 0.00 | 0.00 | 0.00 | 20 | 1002.4 |
| 20260504033015 | 31 | 175 | 12.9 | 32.2 | 0.00 | 0.00 | 0.00 | 20 | 1001.9 |
| 20260504030015 | 31 | 178 | 11.3 | 30.6 | 0.00 | 0.00 | 0.00 | 21 | 1001.5 |
| 20260504023017 | 32 | 174 | 11.3 | 35.4 | 0.00 | 0.00 | 0.00 | 19 | 1001.3 |
| 20260504020016 | 33 | 166 | 12.9 | 35.4 | 0.00 | 0.00 | 0.00 | 17 | 1001.2 |
| 20260504013016 | 34 | 166 | 11.3 | 35.4 | 0.00 | 0.00 | 0.00 | 16 | 1001.3 |
| 20260504010017 | 34 | 159 | 14.5 | 35.4 | 0.00 | 0.00 | 0.00 | 15 | 1001.5 |
| 20260504003016 | 35 | 167 | 14.5 | 35.4 | 0.00 | 0.00 | 0.00 | 14 | 1001.6 |
| 20260504000017 | 35 | 170 | 17.7 | 37.0 | 0.00 | 0.00 | 0.00 | 13 | 1001.8 |
| 20260503233017 | 36 | 178 | 16.1 | 37.0 | 0.00 | 0.00 | 0.00 | 12 | 1001.8 |
| 20260503230016 | 35 | 169 | 16.1 | 38.6 | 0.00 | 0.00 | 0.00 | 12 | 1002.1 |
| 20260503223017 | 36 | 176 | 16.1 | 38.6 | 0.00 | 0.00 | 0.00 | 12 | 1002.5 |
| 20260503220017 | 36 | 162 | 16.1 | 37.0 | 0.00 | 0.00 | 0.00 | 12 | 1002.9 |
| 20260503213016 | 35 | 173 | 17.7 | 40.2 | 0.00 | 0.00 | 0.00 | 12 | 1003.4 |
| 20260503210016 | 36 | 170 | 16.1 | 40.2 | 0.00 | 0.00 | 0.00 | 14 | 1003.7 |
| 20260503203016 | 35 | 138 | 14.5 | 32.2 | 0.00 | 0.00 | 0.00 | 17 | 1004.1 |
| 20260503200016 | 35 | 148 | 16.1 | 41.8 | 0.00 | 0.00 | 0.00 | 16 | 1004.7 |